Weather in Greene

United States     44°11′30″N   70°08′30″W
temp.,
°C
wind,
m/s
gust,
m/s
humid.,
%
clouds,
%
prec.,
mm/h
press.,
hPa
HPBL,
m
18 may, tue
tue1823:00+10wsw22966 0.1 102432
02:00+10sw1194100 0.2 102315
05:00+9wsw229492 0.1 102216
08:00+15wsw1382100 0.1 1022118
11:00+21wnw484699 0.0 10221767
14:00+21nw4849100 0.0 10212305
17:00+22nnw4744100 0.0 10202148
20:00+14nnw2671100 0.0 1022128
19 may, wed
wed1923:00+13wnw2278100 0.0 102230
02:00+13wnw2477100 0.0 102288
05:00+10nnw1183100 0.0 102312
08:00+16n26485 0.0 1024759
11:00+20n36325 0.0 10251831
14:00+23nne36285 0.0 10242200
17:00+23ne35345 0.0 10241588
20:00+14se11685 0.0 102611
20 may, thu
thu2023:00+11nne117439 0.0 102810
02:00+8e118116 0.0 103010
05:00+7s1183100 0.0 103110
08:00+13ssw12675 0.0 1032351
11:00+19s2248100 0.0 1031841
14:00+23s2243100 0.0 10301273
17:00+21sse455291 0.0 1030556
20:00+12sse267894 0.0 1031187
21 may, fri
fri2123:00+10ssw248598 0.0 103188
02:00+10ssw248899 0.1 1031113
05:00+9ssw129187 0.1 103135
08:00+12ssw1286100 0.1 103182
11:00+14ssw1377100 0.0 1030233
14:00+19se2262100 0.0 1029589
17:00+15se2581100 0.1 1028199
20:00+11s2598100 1.3 1028185
22 may, sat
sat2223:00+11s2498100 0.3 1027139
02:00+10ssw2497100 0.3 1025116
05:00+10s1197100 0.0 102332
08:00+11s1298100 0.5 1022124
11:00+12sse1499100 2.3 1021222
14:00+13sse1499100 5.6 1018219
17:00+12se14100100 2.6 1016202
20:00+12se11100100 4.9 101586